User: anonymous   Login
Location: Newark
(34.0131°N, 4.3314°W)
Time: 23:42:14
(UTC+00:00)
Language:

Explorer 7 - Orbit

View from above orbital plane
View from above orbital plane
View from above satellite
View from above satellite

Ground track
Ground track

The orbit data is extracted from the following two-line orbital elements,

1    22U 59009A   19290.20163231  .00000159  00000-0  35326-4 0  9994
2    22  50.2832 167.9464 0140182  45.6259 315.6071 14.94957007188781
Epoch (UTC): 17 October 2019 04:50:21
Eccentricity: 0.0140182
inclination: 50.2832°
perigee height: 485 km
apogee height: 680 km
right ascension of ascending node: 167.9464°
argument of perigee: 45.6259°
revolutions per day: 14.94957007
mean anomaly at epoch: 315.6071°
orbit number at epoch: 18878

The dashed part of the orbit path shows where the satellite is in the earth's shadow,  

DLR